+ View the NASA Portal
+ Center for Near-Earth Object Studies
IMPORTANT:
The SSD Announcement email list is now available. Major changes are coming in the near future, including possible hostname and/or URL changes. To be notified of such changes, subscribe to this email list.
Please visit
this page
for more details.
Don't show this message again
JPL Small-Body Database Browser
Search:
[
help
]
452888 (2006 UR27)
Classification:
Main-belt Asteroid
SPK-ID:
2452888
[
Ephemeris
|
Orbit Diagram
|
Orbital Elements
|
Mission Design
|
Physical Parameters
|
Discovery Circumstances
|
Close-Approach Data
]
[ show orbit diagram ]
Orbital Elements at Epoch 2458600.5 (2019-Apr-27.0) TDB
Reference:
JPL 11
(heliocentric ecliptic J2000)
Element
Value
Uncertainty (1-sigma)
Units
e
.257024152068323
8.9349e-08
a
2.626029112703865
4.1536e-08
au
q
1.951076206704423
2.142e-07
au
i
5.856622413356503
6.3251e-06
deg
node
210.9572445835066
9.1809e-05
deg
peri
248.9706244212713
0.000114
deg
M
295.2548246813143
3.5214e-05
deg
t
p
2458880.045587811349
(2020-Jan-31.54558781)
0.0001481
TDB
period
1554.34611330864
4.26
3.6878e-05
1.01e-07
d
yr
n
.2316086468242845
5.4951e-09
deg/d
Q
3.300982018703306
5.2212e-08
au
Orbit Determination Parameters
# obs. used (total)
131
data-arc span
4768 days (13.05 yr)
first obs. used
2006-10-16
last obs. used
2019-11-05
planetary ephem.
DE431
SB-pert. ephem.
SB431-N16
condition code
0
norm. resid. RMS
.57379
source
ORB
producer
Otto Matic
solution date
2019-Dec-05 02:34:46
Additional Information
Earth MOID
= .976951 au
Jupiter MOID
= 1.92758 au
T_jup
= 3.347
[ show covariance matrix ]
[
Ephemeris
|
Orbit Diagram
|
Orbital Elements
|
Mission Design
|
Physical Parameters
|
Discovery Circumstances
|
Close-Approach Data
]
Physical Parameter Table
Parameter
Symbol
Value
Units
Sigma
Reference
Notes
absolute magnitude
H
17.5
n/a
MPO377651
452888 (2006 UR27)
Discovered 2006-Oct-16 by Spacewatch at Kitt Peak
Reference:
Last Updated:
2016-01-04
[ show close-approach data ]
[
Ephemeris
|
Orbit Diagram
|
Orbital Elements
|
Mission Design
|
Physical Parameters
|
Discovery Circumstances
|
Close-Approach Data
]
2019-Dec-11 14:40 UT
(server date/time)
Site Manager:
Ryan S. Park
Webmaster
:
Alan B. Chamberlin